SL-14 R/B (21820 NORAD) Tracking and Keplerian Element Data

This shows tracking and keplerian element data for the satellite.

Feedback or suggestion? Click here.




ElementValue
Catalog21820
NameSL-14 R/B
Epoch Orbit19099
Epoch Day144.1603305
Epoch Year2019
RAAN61.9897
Inclination82.5656
Eccentricity0.1575436
Argument of Perigee239.9879
Mean Anonmoly103.5772
Mean Motion11.93448614
Decay Rate4E-08
L11 21820U 91086B 19144.16033050 .00000004 00000-0 34335-6 0 9992
L22 21820 82.5656 61.9897 1575436 239.9879 103.5772 11.93448614190999

Live tracking and technical data element details for SL-14 R/B (NORAD 21820). SL-14 R/B can be tracked NOW for your location showing map with azimuth and elevation plus other details from your city location.

Track the satellite on the map from your city or location and see movement details for azimuth, elevation, latitude, longitude, range, height, and movement on the map or in text.







IsCatalogInMostPopularTable: catalog: 21820, numindb: 299
Update: records affected: 1



GetName: 21820 SL-14 R/B

Hit Count: updated at: Mon, 17 Jan 2022 00:57:13 GMT